Location: Devore Heights
(34.2372°N, 117.4156°W)
Time: 19:33:07
(UTC+00:00)

S-56A Canister/Altair - Pass Details

Date: 20 September 2024
Orbit: 636 x 2487 km, 38.9° (Epoch: 14 October)

Event Time Altitude Azimuth Distance (km) Brightness Sun altitude
Rises 05:08:42 0° 290° (WNW) 3,599 11.8 -39.6°
Reaches altitude 10° 05:10:54 10° 290° (WNW) 2,830 11.0 -40.0°
Enters shadow 05:15:15 47° 288° (WNW) 1,584 9.2 -40.7°
Maximum altitude 05:17:53 87° 202° (SSW) 1,368 - -41.1°
Drops below altitude 10° 05:28:46 10° 115° (ESE) 4,265 - -42.8°
Sets 05:32:49 0° 115° (ESE) 5,523 - -43.5°
